Other Public Products
Issued by NWS Charleston, SC

Current Version | Previous Version | Text Only | Print | Product List | Glossary Off
Versions: 1 2 3 4 5 6 7 8 9 10 11 12 13 14 15 16 17 18 19 20 21 22 23 24 25 26 27 28 29 30 31 32 33 34 35 36 37 38 39 40 41 42 43 44 45 46 47 48 49 50

000
FPUS82 KCHS 240027
OPUCHS

TEST...KCHS/KSAV Gateway Observations...TEST
National Weather Service Charleston SC
700 PM EST FRI FEB 23 2018

NOTE: "fair" indicates few or no clouds below 12,000 feet with no
significant weather and/or obstructions to visibility.

SCZ050-WAZ558-NCZ071-TXZ119-213-PAZ071-DCZ001-FLZ074-172-MI076-
NYZ176-178-MAZ016-IL014-TNZ027-NJZ106-GAZ044-MD014-240100-

...Gateway Observations for Charleston International...

CITY           SKY/WX    TMP DP  RH WIND       PRES   REMARKS
Chas Airport   MOCLDY    68  64  87 SE9       30.34S
6HR MIN TEMP:  68; 6HR MAX TEMP:  82;

Seattle        FLURRIES  34  27  75 S12       30.24F WCI  25
6HR MIN TEMP:  29; 6HR MAX TEMP:  40; 6HR PCP: TRACE;

Charlotte      FAIR      68  53  58 S8        30.31S
6HR MIN TEMP:  68; 6HR MAX TEMP:  79;

Dallas DFW     DRZL/FOG  49  48  97 NW7       30.04F VSB 1/4
6HR MIN TEMP:  46; 6HR MAX TEMP:  51; 6HR PCP: TRACE;

Dallas Love    DRZL/FOG  52  51  97 NW3       30.05F VSB 3/4
6HR MIN TEMP:  45; 6HR MAX TEMP:  52; 6HR PCP: TRACE;

Philladelphia  CLOUDY    43  42  97 CALM      30.32F FOG
6HR MIN TEMP:  41; 6HR MAX TEMP:  43; 6HR PCP:  0.02;

Wash National  CLOUDY    47  45  93 S8        30.33F
6HR MIN TEMP:  44; 6HR MAX TEMP:  48; 6HR PCP: TRACE;

Baltimore      CLOUDY    43  43 100 CALM      30.31F FOG
6HR MIN TEMP:  42; 6HR MAX TEMP:  44; 6HR PCP: TRACE;

Miami          MOCLDY    77  67  71 E13       30.25F
6HR MIN TEMP:  76; 6HR MAX TEMP:  82;

Detroit        CLOUDY    47  43  86 W18       30.17R
6HR MIN TEMP:  46; 6HR MAX TEMP:  50;

Newark         DRIZZLE   39  38  96 S5        30.32F FOG     WCI  36
6HR MIN TEMP:  39; 6HR MAX TEMP:  40; 6HR PCP:  0.02;

Laguardia      CLOUDY    41  40  96 CALM      30.31F FOG
6HR MIN TEMP:  37; 6HR MAX TEMP:  41; 6HR PCP:  0.05;

J F K          CLOUDY    39  39 100 SE6       30.32F FOG     WCI  35
6HR MIN TEMP:  39; 6HR MAX TEMP:  40; 6HR PCP:  0.07;

Boston Logan   NOT AVBL
Ft. Lauderdale LGT RAIN  75  70  84 E12G25    30.25S
6HR MIN TEMP:  75; 6HR MAX TEMP:  81; 6HR PCP: TRACE;

Chicago O`Hare CLOUDY    39  31  72 W7        30.23R WCI  34
6HR MIN TEMP:  38; 6HR MAX TEMP:  40;

Chicago Midway CLOUDY    39  34  82 W6        30.25R WCI  35
6HR MIN TEMP:  39; 6HR MAX TEMP:  42;

Houston Bush   PTCLDY    76  65  68 S14       30.05S
6HR MIN TEMP:  75; 6HR MAX TEMP:  80;

Houston Hobby  FAIR      74  70  87 S14       30.05F
6HR MIN TEMP:  74; 6HR MAX TEMP:  80;

Nashville      MOCLDY    71  55  56 S6        30.19F
6HR MIN TEMP:  71; 6HR MAX TEMP:  82;

Atlanta        FAIR      73  59  61 SE6       30.27F
6HR MIN TEMP:  72; 6HR MAX TEMP:  78;


$$

GAZ044-118-TXZ119-213-NCZ071-DCZ001-MDZ014-506-PAZ021-071-NJZ106-
NYZ176-178-MAZ106-OHZ011-021-055-MIZ076-KYZ091-ILZ014-INZ047-
MNZ060-ONZ431-240100-

...Gateway Observations for Savannah International...

CITY           SKY/WX    TMP DP  RH WIND       PRES   REMARKS
Savannah Arpt  FAIR      70  63  78 S8        30.33S
6HR MIN TEMP:  70; 6HR MAX TEMP:  83;

Atlanta        FAIR      73  59  61 SE6       30.27F
6HR MIN TEMP:  72; 6HR MAX TEMP:  78;

Charlotte      FAIR      68  53  58 S8        30.31S
6HR MIN TEMP:  68; 6HR MAX TEMP:  79;

Dallas DFW     DRZL/FOG  49  48  97 NW7       30.04F VSB 1/4
6HR MIN TEMP:  46; 6HR MAX TEMP:  51; 6HR PCP: TRACE;

Houston Bush   PTCLDY    76  65  68 S14       30.05S
6HR MIN TEMP:  75; 6HR MAX TEMP:  80;

Wash National  CLOUDY    47  45  93 S8        30.33F
6HR MIN TEMP:  44; 6HR MAX TEMP:  48; 6HR PCP: TRACE;

Wash Dulles    CLOUDY    45  44  97 S5        30.31F
6HR MIN TEMP:  43; 6HR MAX TEMP:  45; 6HR PCP: TRACE;

Baltimore      CLOUDY    43  43 100 CALM      30.31F FOG
6HR MIN TEMP:  42; 6HR MAX TEMP:  44; 6HR PCP: TRACE;

Philadelphia   CLOUDY    43  42  97 CALM      30.32F FOG
6HR MIN TEMP:  41; 6HR MAX TEMP:  43; 6HR PCP:  0.02;

Newark         DRIZZLE   39  38  96 S5        30.32F FOG     WCI  36
6HR MIN TEMP:  39; 6HR MAX TEMP:  40; 6HR PCP:  0.02;

Laguardia      CLOUDY    41  40  96 CALM      30.31F FOG
6HR MIN TEMP:  37; 6HR MAX TEMP:  41; 6HR PCP:  0.05;

J F K          CLOUDY    39  39 100 SE6       30.32F FOG     WCI  35
6HR MIN TEMP:  39; 6HR MAX TEMP:  40; 6HR PCP:  0.07;

Boston         NOT AVBL
Pittsburg      LGT RAIN  62  57  83 SW9       30.17R
6HR MIN TEMP:  54; 6HR MAX TEMP:  64; 6HR PCP: TRACE;

Akron          CLOUDY    61  53  75 W13       30.17R
6HR MIN TEMP:  57; 6HR MAX TEMP:  62; 6HR PCP:  0.03;

Cleveland      CLOUDY    53  49  86 W10       30.19R
6HR MIN TEMP:  53; 6HR MAX TEMP:  62;

Cincinnati     CLOUDY    57  55  93 SW6       30.23S
6HR MIN TEMP:  57; 6HR MAX TEMP:  63; 6HR PCP:  0.03;

Columbus       FAIR      59  57  95 W9        30.20F
Detroit        CLOUDY    47  43  86 W18       30.17R
6HR MIN TEMP:  46; 6HR MAX TEMP:  50;

Chicago O`Hare CLOUDY    39  31  72 W7        30.23R WCI  34
6HR MIN TEMP:  38; 6HR MAX TEMP:  40;

Minneapolis    FAIR      27  21  78 SW10      30.26R WCI  17
6HR MIN TEMP:  27; 6HR MAX TEMP:  32;

Indianapolis   CLOUDY    49  46  90 NW8       30.25R
6HR MIN TEMP:  49; 6HR MAX TEMP:  55;

Toronto Canada CLOUDY    43  41  93 W10       30.05R

$$




USA.gov is the U.S. government's official web portal to all federal, state and local government web resources and services.